Weather History for KI39 - March, 2013

Change the Weather History Date:

Wednesday, March 27, 2013

  Actual Average (KLOZ) Record (KLOZ)
Temperature  
Mean Temperature 34 °F 51 °F  
Max Temperature 41 °F 62 °F 83 °F (2007)
Min Temperature 28 °F 39 °F 14 °F (1955)
Degree Days  
Heating Degree Days 30 15  
Month to date heating degree days 493  
Since 1 July heating degree days 3769  
Cooling Degree Days 0 0  
Month to date cooling degree days 0  
Year to date cooling degree days 0  
Moisture  
Dew Point 25 °F    
Average Humidity 67    
Maximum Humidity 87    
Minimum Humidity 49    
Precipitation  
Precipitation 0.00 in 0.13 in 2.61 in (1994)
Month to date precipitation 3.52  
Year to date precipitation 10.77  
Sea Level Pressure  
Sea Level Pressure 30.30 in    
Wind  
Wind Speed 6 mph (West)    
Max Wind Speed 10 mph    
Max Gust Speed -    
Visibility 10 miles    
Events      
T = Trace of Precipitation, MM = Missing Value Source: NWS Daily Summary

Daily Weather History Graph

Daily Weather History Graph

Search for Another Location

Airport or City:

Trip Planner

Search our weather history database for the weather conditions in past years. The results will help you decide how hot, cold, wet, or windy it might be!

Date:

Astronomy

Mar. 27, 2013 Rise Set
Actual Time 7:29 AM EDT 7:55 PM EDT
Civil Twilight 7:03 AM EDT 8:22 PM EDT
Nautical Twilight 6:32 AM EDT 8:53 PM EDT
Astronomical Twilight 6:01 AM EDT 9:24 PM EDT
Moon 8:36 PM EDT (3/27) 7:21 AM EDT (3/27)
Length of Visible Light 13h 18m
Length of Day
12h 25m
Full, 100% of the Moon is Illuminated
Mar 27
Full
Apr 3
Last Quarter
Apr 10
New
Apr 18
First Quarter
Apr 25
Full

Hourly Weather History & Observations

Time (EDT) Temp. Windchill Dew Point Humidity Pressure Visibility Wind Dir Wind Speed Gust Speed Precip Events Conditions
12:15 AM 33.8 °F 28.6 °F 28.4 °F 81% 30.26 in 10.0 mi West 5.8 mph - N/A   Overcast
12:35 AM 33.8 °F 28.6 °F 28.4 °F 81% 30.26 in 10.0 mi West 5.8 mph - N/A   Overcast
12:55 AM 33.8 °F 28.6 °F 28.4 °F 81% 30.27 in 10.0 mi West 5.8 mph - N/A   Overcast
1:15 AM 33.8 °F 27.7 °F 28.4 °F 81% 30.26 in 10.0 mi West 6.9 mph - N/A   Overcast
1:35 AM 33.8 °F 28.6 °F 28.4 °F 81% 30.27 in 10.0 mi West 5.8 mph - N/A   Overcast
1:55 AM 33.8 °F 29.6 °F 28.4 °F 81% 30.26 in 10.0 mi West 4.6 mph - N/A   Overcast
2:15 AM 33.8 °F 27.0 °F 28.4 °F 81% 30.26 in 10.0 mi West 8.1 mph - N/A   Overcast
2:35 AM 32.0 °F 26.4 °F 28.4 °F 87% 30.26 in 10.0 mi West 5.8 mph - N/A   Overcast
3:15 AM 32.0 °F 25.6 °F 28.4 °F 87% 30.26 in 10.0 mi West 6.9 mph - N/A   Overcast
3:35 AM 32.0 °F 25.6 °F 28.4 °F 87% 30.26 in 10.0 mi West 6.9 mph - N/A   Overcast
3:55 AM 32.0 °F 26.4 °F 28.4 °F 87% 30.25 in 10.0 mi West 5.8 mph - N/A   Overcast
4:15 AM 32.0 °F 24.8 °F 28.4 °F 87% 30.25 in 10.0 mi West 8.1 mph - N/A   Overcast
4:35 AM 32.0 °F 25.6 °F 28.4 °F 87% 30.26 in 10.0 mi West 6.9 mph - N/A   Overcast
4:55 AM 32.0 °F 25.6 °F 26.6 °F 80% 30.26 in 10.0 mi West 6.9 mph - N/A   Overcast
5:15 AM 32.0 °F 25.6 °F 26.6 °F 80% 30.26 in 10.0 mi West 6.9 mph - N/A   Scattered Clouds
5:35 AM 30.2 °F 26.7 °F 26.6 °F 86% 30.27 in 10.0 mi NW 3.5 mph - N/A   Clear
5:55 AM 30.2 °F 24.3 °F 26.6 °F 86% 30.27 in 10.0 mi West 5.8 mph - N/A   Clear
6:15 AM 30.2 °F 25.4 °F 26.6 °F 86% 30.28 in 10.0 mi West 4.6 mph - N/A   Clear
6:35 AM 30.2 °F 24.3 °F 26.6 °F 86% 30.28 in 10.0 mi West 5.8 mph - N/A   Clear
7:15 AM 28.4 °F 22.2 °F 24.8 °F 86% 30.29 in 10.0 mi West 5.8 mph - N/A   Clear
7:35 AM 28.4 °F 21.2 °F 24.8 °F 86% 30.29 in 10.0 mi WSW 6.9 mph - N/A   Clear
7:55 AM 28.4 °F 23.3 °F 24.8 °F 86% 30.30 in 10.0 mi West 4.6 mph - N/A   Clear
8:15 AM 28.4 °F - 24.8 °F 86% 30.30 in 10.0 mi Calm Calm - N/A   Clear
8:35 AM 30.2 °F 26.7 °F 24.8 °F 80% 30.30 in 10.0 mi West 3.5 mph - N/A   Clear
8:55 AM 30.2 °F - 26.6 °F 86% 30.31 in 10.0 mi Calm Calm - N/A   Clear
9:15 AM 32.0 °F 26.4 °F 24.8 °F 75% 30.32 in 10.0 mi WNW 5.8 mph - N/A   Clear
9:35 AM 32.0 °F 25.6 °F 26.6 °F 80% 30.33 in 10.0 mi WNW 6.9 mph - N/A   Clear
9:55 AM 33.8 °F 27.0 °F 26.6 °F 75% 30.33 in 10.0 mi WNW 8.1 mph - N/A   Clear
10:15 AM 33.8 °F 26.4 °F 26.6 °F 75% 30.33 in 10.0 mi WNW 9.2 mph - N/A   Clear
10:35 AM 35.6 °F 30.7 °F 26.6 °F 70% 30.33 in 10.0 mi WNW 5.8 mph - N/A   Clear
10:55 AM 35.6 °F 31.7 °F 26.6 °F 70% 30.33 in 10.0 mi West 4.6 mph - N/A   Scattered Clouds
11:15 AM 37.4 °F 31.4 °F 24.8 °F 60% 30.33 in 10.0 mi West 8.1 mph - N/A   Scattered Clouds
11:35 AM 39.2 °F 34.2 °F 24.8 °F 56% 30.33 in 10.0 mi WNW 6.9 mph - N/A   Mostly Cloudy
11:55 AM 37.4 °F 32.1 °F 23.0 °F 56% 30.33 in 10.0 mi West 6.9 mph - N/A   Mostly Cloudy
12:15 PM 39.2 °F 33.6 °F 23.0 °F 52% 30.34 in 10.0 mi West 8.1 mph - N/A   Mostly Cloudy
12:35 PM 37.4 °F 30.8 °F 23.0 °F 56% 30.34 in 10.0 mi NW 9.2 mph - N/A   Mostly Cloudy
1:15 PM 39.2 °F 34.2 °F 23.0 °F 52% 30.33 in 10.0 mi WNW 6.9 mph - N/A   Mostly Cloudy
1:35 PM 39.2 °F 35.0 °F 21.2 °F 49% 30.32 in 10.0 mi WNW 5.8 mph - N/A   Mostly Cloudy
1:55 PM 39.2 °F 35.9 °F 23.0 °F 52% 30.32 in 10.0 mi WNW 4.6 mph - N/A   Overcast
2:15 PM 39.2 °F 35.9 °F 21.2 °F 49% 30.31 in 10.0 mi WSW 4.6 mph - N/A   Overcast
2:35 PM 39.2 °F 34.2 °F 23.0 °F 52% 30.31 in 10.0 mi SW 6.9 mph - N/A   Overcast
2:55 PM 39.2 °F 33.0 °F 24.8 °F 56% 30.30 in 10.0 mi SW 9.2 mph - N/A   Overcast
3:15 PM 39.2 °F 33.0 °F 23.0 °F 52% 30.31 in 10.0 mi West 9.2 mph - N/A   Overcast
3:35 PM 39.2 °F 34.2 °F 23.0 °F 52% 30.31 in 10.0 mi West 6.9 mph - N/A   Overcast
3:55 PM 41.0 °F 35.2 °F 23.0 °F 49% 30.31 in 10.0 mi West 9.2 mph - N/A   Overcast
4:15 PM 41.0 °F 34.7 °F 23.0 °F 49% 30.30 in 10.0 mi WNW 10.4 mph - N/A   Overcast
4:35 PM 39.2 °F 33.0 °F 24.8 °F 56% 30.30 in 10.0 mi West 9.2 mph - N/A   Overcast
4:55 PM 39.2 °F 34.2 °F 24.8 °F 56% 30.30 in 10.0 mi WSW 6.9 mph - N/A   Overcast
5:15 PM 39.2 °F 35.9 °F 24.8 °F 56% 30.30 in 10.0 mi West 4.6 mph - N/A   Overcast
5:35 PM 39.2 °F 33.0 °F 23.0 °F 52% 30.30 in 10.0 mi West 9.2 mph - N/A   Overcast
5:55 PM 41.0 °F 36.4 °F 23.0 °F 49% 30.30 in 10.0 mi NW 6.9 mph - N/A   Overcast
6:15 PM 41.0 °F 38.0 °F 23.0 °F 49% 30.29 in 10.0 mi NW 4.6 mph - N/A   Mostly Cloudy
6:35 PM 41.0 °F 36.4 °F 23.0 °F 49% 30.29 in 10.0 mi NW 6.9 mph - N/A   Mostly Cloudy
7:15 PM 39.2 °F 35.0 °F 23.0 °F 52% 30.29 in 10.0 mi West 5.8 mph - N/A   Scattered Clouds
7:35 PM 39.2 °F 35.9 °F 23.0 °F 52% 30.29 in 10.0 mi WNW 4.6 mph - N/A   Scattered Clouds
7:55 PM 37.4 °F 34.9 °F 23.0 °F 56% 30.29 in 10.0 mi West 3.5 mph - N/A   Mostly Cloudy
8:15 PM 37.4 °F 33.8 °F 23.0 °F 56% 30.29 in 10.0 mi WNW 4.6 mph - N/A   Overcast
8:35 PM 37.4 °F 33.8 °F 24.8 °F 60% 30.29 in 10.0 mi WNW 4.6 mph - N/A   Overcast
9:15 PM 37.4 °F 34.9 °F 23.0 °F 56% 30.30 in 10.0 mi West 3.5 mph - N/A   Overcast
9:35 PM 37.4 °F 33.8 °F 23.0 °F 56% 30.30 in 10.0 mi West 4.6 mph - N/A   Overcast
9:55 PM 37.4 °F 34.9 °F 23.0 °F 56% 30.30 in 10.0 mi West 3.5 mph - N/A   Overcast
10:15 PM 37.4 °F 34.9 °F 23.0 °F 56% 30.30 in 10.0 mi West 3.5 mph - N/A   Overcast
10:35 PM 37.4 °F 34.9 °F 23.0 °F 56% 30.30 in 10.0 mi WSW 3.5 mph - N/A   Overcast
10:55 PM 39.2 °F - 21.2 °F 49% 30.30 in 10.0 mi Calm Calm - N/A   Overcast
11:15 PM 37.4 °F - 23.0 °F 56% 30.30 in 10.0 mi Calm Calm - N/A   Overcast
11:35 PM 37.4 °F - 24.8 °F 60% 30.30 in 10.0 mi Calm Calm - N/A   Overcast
11:55 PM 37.4 °F - 24.8 °F 60% 30.30 in 10.0 mi Calm Calm - N/A   Overcast